Regional Weather Roundup
Issued by NWS

Home | Current Version | Previous Version | Graphics & Text | Print | Product List | Glossary Off
Versions: 1 2 3 4 5 6 7 8 9 10 11 12 13 14 15 16 17 18 19 20 21 22 23 24 25 26 27 28 29 30 31 32 33 34 35 36 37 38 39 40 41 42 43 44 45 46 47 48 49 50

000
ASUS43 KFSD 190710
RWRSD

WEATHER ROUNDUP FOR SOUTH DAKOTA
NATIONAL WEATHER SERVICE SIOUX FALLS SD
100 AM CST SUN FEB 19 2017

NOTE: "FAIR" INDICATES FEW OR NO CLOUDS BELOW 12,000 FEET WITH NO
SIGNIFICANT WEATHER AND/OR OBSTRUCTIONS TO VISIBILITY.


SDZ001>005-009-010-012>017-190800-
NORTHWEST AND NORTH CENTRAL SOUTH DAKOTA

CITY           SKY/WX    TMP DP  RH WIND       PRES   REMARKS
BUFFALO          N/A     43  33  68 CALM      29.51F
FAITH            N/A     40  33  76 SE14      29.60F
MOBRIDGE       PTCLDY    40  31  70 SE12      29.63S
$$

SDZ012>016-024>037-041>051-057-063-072>074-190800-
SOUTHWEST AND SOUTH CENTRAL SOUTH DAKOTA

CITY           SKY/WX    TMP DP  RH WIND       PRES   REMARKS
RAPID CTY ARPT PTCLDY    46  30  53 SE7       29.61F
PIERRE         PTCLDY    43  31  62 SE9       29.67S
CUSTER         CLOUDY    42  26  53 W5        29.66F
ELLSWORTH AFB  PTCLDY    49  30  48 S6        29.60F
PHILIP         CLOUDY    51  33  50 W5        29.64F
PINE RIDGE     CLOUDY    47  33  58 S17       29.63F
SPEARFISH      MOCLDY    43  30  61 S10       29.61F
WINNER         FAIR      51  33  50 S16       29.69S
$$

SDZ004>011-016>023-039-040-190800-
NORTHEAST SOUTH DAKOTA

CITY           SKY/WX    TMP DP  RH WIND       PRES   REMARKS
ABERDEEN       CLOUDY    37  32  82 S13       29.73F
WATERTOWN      CLOUDY    38  35  89 SE9       29.78S
SISSETON         N/A     35  35 100 S8        29.79R WCI  29
$$

SDZ017-020-022-023-036>040-048>070-190800-
SOUTHEAST SOUTH DAKOTA

CITY           SKY/WX    TMP DP  RH WIND       PRES   REMARKS
SIOUX FALLS    PTCLDY    42  38  85 SE5       29.81S
HURON          MOCLDY    37  34  89 SE6       29.75S
CHAMBERLAIN    PTCLDY    42  37  80 SE9       29.73R
MITCHELL       PTCLDY    41  36  82 SE10      29.77S
YANKTON        PTCLDY    37  30  75 E5        29.79S
$$

ABBREVIATIONS USED IN REMARKS
   TC - TEMPERATURE IN CELSIUS
  WCI - WIND CHILL INDEX
   HX - HEAT INDEX
  VSB - VISIBILITY




USA.gov is the U.S. government's official web portal to all federal, state and local government web resources and services.